Location: Rochester
(43.1547°N, 77.6158°W)
Time: 11:46:34
(UTC-05:00)

Tiangong 2 - Visible Passes

Search period start: 21 February 2018 00:00
Search period end: 03 March 2018 00:00
Orbit: 384 x 388 km, 42.8° (Epoch: 21 February)

Date Brightness Start Highest point End Pass type
(mag) Time Alt. Az. Time Alt. Az. Time Alt. Az.
21 Feb 2.8 19:00:49 10° W 19:03:38 29° SSW 19:05:47 14° SSE visible
22 Feb 4.0 19:40:04 10° SW 19:41:00 11° SW 19:41:57 10° SSW visible
23 Feb 3.7 18:39:59 10° WSW 18:42:15 18° SSW 18:44:31 10° SSE visible
25 Feb 4.3 18:19:58 10° SW 18:20:46 11° SW 18:21:34 10° SSW visible
